Tracking 19246 objects as of 19-Aug-2018
HD Live streaming from Space Station
objects crossing your sky now

NOAA 16 DEB

Track NOAA 16 DEB now!
10-day predictions


NORAD ID: 41714
Int'l Code: 2000-055PU
Perigee: 844.1 km
Apogee: 1,029.7 km
Inclination: 99.0 °
Period: 103.6 minutes
Semi major axis: 7307 km
RCS: Unknown
Launch date: September 21, 2000
Source: United States (US)
Launch site: AIR FORCE WESTERN TEST RANGE (AFWTR)

Note: This is SATELLITE DEBRIS
aabbcc
Your satellite tracking list
Your tracking list is empty




NASA's NSSDC Master Catalog

Two Line Element Set (TLE):
1 41714U 00055PU  18230.91378587  .00000734  00000-0  59289-3 0  9999
2 41714  98.9919 272.4126 0126979 125.8100 235.4937 13.89688775114088
Source of the keplerian elements: AFSPC